Flag for Italy Weather past 2 weeks in Bologna, Italy

Now
72 °F

Clear.


Feels Like: 76 °F
Forecast: 65 / 76 °F
Wind: 6 mph from Southwest

Location: Bologna / Borgo Panigale

Current Time: Aug 23, 2014 at 12:07:00 AM

Latest Report: Aug 22, 2014 at 11:20 PM


Visibility: 10 mi

Pressure: 29.95 "Hg

Humidity: 61%

Dew point: 57 °F

Location of BolognaLocation

Historic Weather in Bologna — Graph

°F

Bologna temperature yesterday

Maximum temperature yesterday: 81 °F (at 1:50 PM)
Minimum temperature yesterday: 61 °F (at 2:50 AM)
Average temperature yesterday: 72 °F

Past Weeks' High & Low Weather Summary

 TemperatureHumidityPressure
High91 °F (Aug 10, 4:50 PM)100% (Aug 16, 9:20 AM)30.09 "Hg (Aug 16, 9:20 AM)
Low55 °F (Aug 17, 5:50 AM)32% (Aug 17, 4:20 PM)29.68 "Hg (Aug 13, 2:20 PM)
Average74 °F64%29.90 "Hg
* Reported Aug 7 10:20 PM — Aug 22 10:50 PM, Bologna, Weather by CustomWeather, © 2014

Note: Actual official high and low records may vary slightly from our data, if they occured in-between our weather recording intervals... More about our weather records

Advertising

Bologna weather history for previous 24 hours

 ConditionsComfort  
Time TempWeatherWind HumidityBarometerVisibility
10:50 PM
Aug 22
72 °FClear.8 mph61%29.95 "Hg10 mi
10:20 PM73 °FClear.9 mph61%29.95 "Hg10 mi
9:50 PM73 °FPassing clouds.5 mph61%29.95 "HgN/A
9:20 PM73 °FPassing clouds.5 mph61%29.95 "HgN/A
8:50 PM75 °FPassing clouds.5 mph57%29.92 "HgN/A
8:20 PM77 °FPassing clouds.5 mph54%29.92 "HgN/A
7:50 PM79 °FPassing clouds.2 mph54%29.92 "HgN/A
7:20 PM81 °FPassing clouds.3 mph48%29.92 "HgN/A
6:50 PM81 °FPassing clouds.3 mph48%29.92 "HgN/A
6:20 PM81 °FPassing clouds.3 mph48%29.92 "HgN/A
5:50 PM81 °FScattered clouds.3 mph51%29.92 "HgN/A
5:20 PM81 °FScattered clouds.6 mph51%29.92 "HgN/A
4:50 PM81 °FScattered clouds.3 mph48%29.92 "HgN/A
4:20 PM81 °FPassing clouds.5 mph48%29.92 "HgN/A
3:50 PM81 °FPassing clouds.5 mph48%29.95 "HgN/A
3:20 PM81 °FPassing clouds.5 mph48%29.95 "HgN/A
2:50 PM81 °FPassing clouds.6 mph51%29.95 "HgN/A
2:20 PM81 °FPassing clouds.6 mph54%29.95 "HgN/A
1:50 PM81 °FPassing clouds.5 mph51%29.95 "HgN/A
1:20 PM79 °FPassing clouds.7 mph61%29.95 "HgN/A
12:50 PM77 °FScattered clouds.6 mph65%29.98 "HgN/A
12:20 PM77 °FScattered clouds.5 mph65%29.98 "HgN/A
11:50 AM75 °FPassing clouds.5 mph69%29.98 "HgN/A
11:20 AM75 °FPassing clouds.3 mph69%29.98 "HgN/A
10:50 AM73 °FPassing clouds.6 mph69%29.98 "HgN/A
10:20 AM72 °FPassing clouds.7 mph73%29.98 "HgN/A
9:50 AM70 °FPassing clouds.6 mph78%29.98 "HgN/A
9:20 AM70 °FPassing clouds.6 mph73%29.95 "HgN/A
8:50 AM68 °FPassing clouds.7 mph78%29.95 "HgN/A
8:20 AM66 °FPassing clouds.7 mph78%29.95 "HgN/A
7:50 AM64 °FScattered clouds.5 mph83%29.95 "HgN/A
7:20 AM64 °FPartly cloudy.6 mph78%29.95 "HgN/A
6:50 AM64 °FPartly cloudy.7 mph73%29.95 "HgN/A
6:20 AM64 °FPassing clouds.6 mph73%29.95 "HgN/A
5:50 AM66 °FPassing clouds.8 mph73%29.95 "HgN/A
5:20 AM66 °FPassing clouds.8 mph68%29.95 "HgN/A
4:50 AM64 °FPassing clouds.5 mph68%29.95 "HgN/A
4:20 AM64 °FPassing clouds.7 mph68%29.95 "HgN/A
3:50 AM64 °FPassing clouds.7 mph60%29.95 "HgN/A
3:20 AM63 °FPassing clouds.7 mph64%29.95 "HgN/A
2:50 AM61 °FClear.6 mph68%29.95 "Hg10 mi
2:20 AM63 °FClear.3 mph64%29.95 "Hg10 mi
1:50 AM63 °FClear.5 mph64%29.92 "Hg10 mi
1:20 AM64 °FClear.6 mph60%29.92 "Hg10 mi
12:50 AM66 °FClear.7 mph56%29.92 "Hg10 mi
12:20 AM66 °FClear.7 mph56%29.92 "Hg10 mi
Weather by CustomWeather, © 2014

See weather overviewHow to use our weather pages